GEFSMA_con_cape1000_132.txt.gz
Probability
81 58 74 84 71 68 71 68 61 65 58 45 39 42 35 35 48 39 65 71 68 74 65 61 55 58 52 48 48 48 42 42 39 35 39 42 35 35 29 29 32 32 32
74 71 68 77 77 74 61 65 55 71 71 58 45 39 48 35 42 48 55 58 61 52 58 55 48 45 35 35 45 42 39 35 32 32 32 29 29 29 32 29 29 26 23
65 68 58 65 65 61 71 71 61 61 61 58 45 42 55 55 48 55 52 58 42 26 39 45 42 35 32 32 32 32 35 32 32 32 29 26 26 26 29 29 29 23 23
52 58 58 65 68 68 65 55 58 42 39 42 52 42 48 48 39 39 35 35 39 29 29 29 32 29 29 26 26 29 32 32 29 29 29 26 26 23 26 23 19 19 10
48 52 55 58 58 61 58 42 29 35 39 45 32 35 29 39 26 23 26 26 26 26 23 23 19 23 23 23 26 26 23 29 26 26 26 29 26 23 19 19 10 6 3
35 45 48 45 45 58 65 45 39 42 42 39 13 13 32 29 29 29 16 16 16 10 13 6 23 13 13 16 16 16 16 16 16 19 23 23 16 13 13 10 3 3 3
32 32 35 45 39 39 39 29 32 29 29 26 23 6 10 13 13 19 19 19 6 6 10 10 10 13 13 13 10 10 10 10 10 13 16 16 16 10 10 6 0 0 0
19 13 29 32 26 26 32 29 29 29 23 19 16 13 3 10 13 3 16 16 6 6 6 3 10 13 13 16 6 6 6 6 6 6 13 10 13 13 3 3 0 0 0
16 19 16 16 16 26 26 26 26 19 13 10 13 10 6 3 13 10 3 3 6 6 6 3 6 3 13 10 3 6 6 6 6 6 6 6 6 6 6 3 3 0 0
13 13 13 13 16 16 16 16 19 19 16 6 0 3 6 6 3 3 0 0 3 3 3 3 6 6 3 6 3 0 3 6 6 6 6 6 6 6 6 6 3 0 3
10 10 10 10 10 3 3 3 3 13 16 6 3 0 0 0 0 0 0 0 0 0 0 3 3 3 3 3 3 0 0 0 0 0 3 6 6 6 6 6 3 0 3
10 10 10 10 6 6 6 3 6 10 10 10 10 0 0 0 0 0 0 0 0 0 0 0 0 0 0 0 0 0 0 0 0 0 0 0 0 0 0 0 0 3 0
6 6 6 6 6 3 0 0 3 10 6 3 3 6 3 0 3 0 0 0 0 0 0 0 0 0 0 0 0 0 0 0 0 0 0 0 0 0 0 0 0 0 0
6 6 3 3 3 3 0 0 3 0 0 3 0 3 3 0 0 0 0 0 0 0 0 0 0 0 0 0 0 0 0 0 0 0 0 0 0 0 0 0 0 0 0
6 6 3 3 3 3 3 0 0 0 0 0 0 0 0 0 0 0 0 0 0 0 0 0 0 0 3 0 0 0 0 0 0 0 0 0 0 0 0 0 0 0 0
6 3 3 3 3 3 3 3 3 3 3 3 0 0 0 0 0 0 0 0 0 0 0 0 0 0 0 0 0 0 0 0 0 0 0 0 0 0 0 0 0 0 0
0 0 0 0 0 0 3 3 0 3 0 0 0 0 0 0 0 0 0 0 0 0 0 0 0 0 0 0 0 0 0 0 0 0 0 0 0 0 0 0 0 0 0
0 0 0 0 0 0 0 0 0 0 0 0 0 0 0 0 0 0 0 0 0 0 0 0 0 0 0 0 0 0 0 0 0 0 0 0 0 0 0 0 0 0 0
0 0 0 0 0 0 0 0 0 0 0 0 0 0 0 0 0 0 0 0 0 0 0 0 0 0 0 0 0 0 0 0 0 0 0 0 0 0 0 0 0 0 0
0 0 0 0 0 0 0 0 0 0 0 0 0 0 0 0 0 0 0 0 0 0 0 0 0 0 0 0 0 0 0 0 0 0 0 0 0 0 0 0 0 0 0
0 0 0 0 0 0 0 0 0 0 0 0 0 0 0 0 0 0 0 0 0 0 0 0 0 0 0 0 0 0 0 0 0 0 0 0 0 0 0 0 0 0 0
0 0 0 0 0 0 0 0 0 0 0 0 0 0 0 0 0 0 0 0 0 0 0 0 0 0 0 0 0 0 0 0 0 0 0 0 0 0 0 3 0 0 0
0 0 0 0 0 0 0 0 0 0 0 0 0 0 0 0 0 0 0 0 0 0 0 0 0 0 0 0 0 0 0 0 0 0 0 0 0 0 0 0 0 0 0
0 0 0 0 0 0 0 0 0 0 0 0 0 0 0 0 0 0 0 0 0 0 0 0 0 0 0 0 0 0 0 0 0 0 0 0 0 0 0 0 0 0 0
0 0 0 0 0 0 0 0 0 0 0 0 0 0 0 0 0 0 0 0 0 0 0 0 0 0 0 0 0 0 0 0 0 0 0 0 0 0 0 0 0 0 0
0 0 0 0 0 0 0 0 0 0 0 0 0 0 0 0 0 0 0 0 0 0 0 0 0 0 0 0 0 0 0 0 0 0 0 0 0 0 0 0 0 0 0

GEFSMA_con_cape1000_138.txt.gz
Probability
68 65 68 71 74 77 74 77 77 74 74 74 58 52 45 52 39 26 29 61 61 68 71 68 68 71 68 74 65 52 48 45 45 39 35 32 35 39 35 35 32 23 26
65 58 65 68 65 68 68 68 77 74 71 71 52 58 61 58 48 55 52 55 52 52 61 61 52 58 55 48 48 42 32 32 39 39 32 29 26 26 26 29 29 29 23
61 61 61 58 55 61 65 68 61 65 65 52 48 52 55 55 45 45 39 42 42 48 55 48 42 48 39 35 32 35 35 29 35 32 32 29 23 23 26 29 29 29 23
55 55 55 52 58 52 55 55 52 52 55 52 48 48 48 45 42 39 32 35 29 19 35 35 32 35 32 32 26 26 32 32 32 32 29 26 23 23 19 19 23 23 19
48 52 55 55 48 48 48 32 39 39 45 39 29 32 32 35 35 26 35 23 29 26 13 23 23 23 29 23 23 23 19 26 29 26 26 23 19 16 16 16 16 16 13
42 39 45 52 48 45 42 35 26 26 26 26 13 13 16 23 29 26 26 16 29 26 10 10 6 6 10 6 16 13 13 13 16 16 16 16 16 13 10 10 6 3 3
39 39 35 39 42 32 19 23 16 13 16 16 16 13 10 10 16 26 16 16 16 6 10 13 6 6 3 6 10 13 13 16 13 10 16 13 13 6 6 3 0 0 0
26 23 29 35 32 35 23 23 23 16 16 13 6 13 3 3 10 3 10 13 6 3 6 3 6 6 10 3 3 10 13 10 10 10 10 10 10 10 6 0 3 0 0
23 23 19 19 23 23 23 16 23 19 16 13 10 3 0 0 0 0 3 0 0 0 3 0 0 0 3 3 0 3 6 6 6 10 10 10 10 10 6 6 3 3 3
19 19 19 16 16 16 13 13 19 16 10 10 10 3 3 3 0 0 0 0 0 0 0 0 0 0 0 0 6 3 3 6 6 6 6 6 10 10 10 6 6 6 3
19 16 13 10 13 10 10 6 6 6 6 6 6 3 0 0 0 0 0 0 0 0 0 0 0 0 0 0 0 6 0 0 0 3 3 3 3 3 3 6 3 3 0
16 16 10 10 10 10 6 3 3 3 3 6 6 3 3 0 0 0 0 0 0 0 0 0 0 0 0 0 0 0 0 0 0 0 0 3 3 3 3 3 3 3 6
16 16 10 6 6 6 0 0 3 3 3 3 3 0 0 0 0 0 0 0 0 0 0 0 0 0 0 0 0 0 0 0 0 0 0 0 0 0 0 0 0 3 3
10 6 6 6 6 6 0 0 0 0 0 6 0 0 0 0 0 0 0 0 0 0 0 0 0 0 0 0 0 0 0 0 0 0 0 0 0 0 0 0 0 0 0
6 6 6 6 6 3 0 0 0 0 3 3 0 0 0 3 0 0 0 0 0 0 0 0 0 0 0 0 0 0 0 0 0 0 0 0 0 0 0 0 0 0 0
6 6 6 6 6 3 3 3 3 3 3 3 3 3 3 0 0 0 0 0 0 0 0 0 0 0 0 0 0 0 0 0 0 0 0 0 0 0 0 0 0 0 0
3 3 3 3 3 3 3 3 3 3 3 3 0 0 0 0 0 0 0 0 0 0 0 0 0 0 0 0 0 0 0 0 0 0 0 0 0 0 0 0 0 0 0
3 3 3 3 3 3 3 3 3 3 3 0 0 0 0 0 0 0 0 0 0 0 0 0 0 0 0 0 0 0 0 0 0 0 0 0 0 0 0 0 0 0 0
0 0 0 0 0 0 0 0 0 0 0 0 0 0 0 0 0 0 0 0 0 0 0 0 0 0 0 0 0 0 0 0 0 0 0 0 0 0 0 0 0 0 0
0 0 0 0 0 0 0 0 0 0 0 0 0 0 0 0 0 0 0 0 0 0 0 0 0 0 0 0 0 0 0 0 0 0 0 0 0 0 0 0 0 0 0
0 0 0 0 0 0 0 0 0 0 0 0 0 0 0 0 0 0 0 0 0 0 0 0 0 0 0 0 0 0 0 0 0 0 0 0 0 0 0 0 0 0 0
0 0 0 0 0 0 0 0 0 0 0 0 0 0 0 0 0 0 0 0 0 0 0 0 0 0 0 0 0 0 0 0 0 0 0 0 0 0 0 0 0 0 0
0 0 0 0 0 0 0 0 0 0 0 0 0 0 0 0 0 0 0 0 0 0 0 0 0 0 0 0 0 0 0 0 0 0 0 0 0 0 0 0 0 0 0
0 0 0 0 0 0 0 0 0 0 0 0 0 0 0 0 0 0 0 0 0 0 0 0 0 0 0 0 0 0 0 0 0 0 0 0 0 0 0 0 0 0 0
0 0 0 0 0 0 0 0 0 0 0 0 0 0 0 0 0 0 0 0 0 0 0 0 0 0 0 0 0 0 0 0 0 0 0 0 0 0 0 0 0 0 0
0 0 0 0 0 0 0 0 0 0 0 0 0 0 0 0 0 0 0 0 0 0 0 0 0 0 0 0 0 0 0 0 0 0 0 0 0 0 0 0 0 0 0

GEFSMA_con_cape1000_144.txt.gz
Probability
23 19 26 23 26 16 16 16 19 16 6 3 3 3 0 0 0 3 6 58 61 61 58 58 61 61 74 71 68 61 61 52 48 45 42 39 39 39 35 35 32 32 32
23 23 19 19 13 10 6 6 6 10 3 0 0 3 3 0 0 0 0 26 48 45 55 61 61 68 65 65 58 48 55 48 42 35 35 29 29 29 29 29 29 29 26
19 23 13 13 13 10 6 3 3 3 3 3 0 0 0 0 0 0 0 0 6 35 42 42 55 58 52 48 45 45 45 45 39 32 29 23 23 19 23 23 19 26 23
23 19 16 16 13 13 6 3 3 6 0 0 0 0 0 0 0 0 0 0 0 3 23 35 35 35 45 39 35 32 26 32 26 26 19 19 19 23 19 16 19 23 13
16 16 16 13 13 13 10 10 3 0 0 0 0 0 0 0 0 0 0 0 0 0 0 13 26 29 32 29 32 29 26 29 26 26 16 13 13 13 13 10 3 10 10
16 16 16 16 16 13 6 6 6 3 0 0 0 0 0 0 0 0 0 0 0 0 0 0 6 6 23 26 29 19 16 23 26 19 13 13 10 10 6 0 3 3 0
13 10 13 10 10 10 10 6 6 6 3 0 0 0 0 0 0 0 0 0 0 0 0 0 0 0 0 10 6 13 6 6 13 16 10 10 10 10 10 3 0 0 0
13 13 10 10 10 10 6 6 6 6 0 0 0 0 0 0 0 0 0 0 0 0 0 0 0 0 0 0 0 3 6 6 10 13 13 10 10 10 10 3 0 0 0
13 10 10 10 10 10 6 6 6 3 0 0 0 0 0 0 0 0 0 0 0 0 0 0 0 0 0 0 0 0 0 3 10 6 6 10 6 6 6 6 3 0 0
10 10 10 10 10 10 6 6 3 0 0 0 0 0 0 0 0 0 0 0 0 0 0 0 0 0 0 0 0 0 0 0 0 6 6 6 6 6 6 6 6 3 0
10 10 10 10 10 6 3 0 0 0 0 0 0 0 0 0 0 0 0 0 0 0 0 0 0 0 0 0 0 0 0 0 0 0 0 3 3 6 6 6 6 6 3
10 6 6 6 6 6 0 0 0 0 0 0 0 0 0 0 0 0 0 0 0 0 0 0 0 0 0 0 0 0 0 0 0 0 0 0 0 0 3 6 6 6 6
6 6 6 6 6 6 0 0 0 0 0 0 0 0 0 0 0 0 0 0 0 0 0 0 0 0 0 0 0 0 0 0 0 0 0 0 0 0 0 0 3 6 6
3 6 6 6 6 6 0 0 0 0 0 0 0 0 0 0 0 0 0 0 0 0 0 0 0 0 0 0 0 0 0 0 0 0 0 0 0 0 0 0 0 0 0
3 3 3 3 6 0 0 0 0 0 0 0 0 0 0 0 0 0 0 0 0 0 0 0 0 0 0 0 0 0 0 0 0 0 0 0 0 0 0 0 0 0 0
0 0 0 3 3 0 0 0 0 0 0 0 0 0 0 0 0 0 0 0 0 0 0 0 0 0 0 0 0 0 0 0 0 0 0 0 0 0 0 0 0 0 0
0 0 0 0 0 3 0 0 0 0 0 0 0 0 0 0 0 0 0 0 0 0 0 0 0 0 0 0 0 0 0 0 0 0 0 0 0 0 0 0 0 0 0
0 0 0 0 0 0 0 0 0 0 0 0 0 0 0 0 0 0 0 0 0 0 0 0 0 0 0 0 0 0 0 0 0 0 0 0 0 0 0 0 0 0 0
0 0 0 0 0 0 0 0 0 0 0 0 0 0 0 0 0 0 0 0 0 0 0 0 0 0 0 0 0 0 0 0 0 0 0 0 0 0 0 0 0 0 0
0 0 0 0 0 0 0 0 0 0 0 0 0 0 0 0 0 0 0 0 0 0 0 0 0 0 0 0 0 0 0 0 0 0 0 0 0 0 0 0 0 0 0
0 0 0 0 0 0 0 0 0 0 0 0 0 0 0 0 0 0 0 0 0 0 0 0 0 0 0 0 0 0 0 0 0 0 0 0 0 0 0 0 0 0 0
0 0 0 0 0 0 0 0 0 0 0 0 0 0 0 0 0 0 0 0 0 0 0 0 0 0 0 0 0 0 0 0 0 0 0 0 0 0 0 0 0 0 0
0 0 0 0 0 0 0 0 0 0 0 0 0 0 0 0 0 0 0 0 0 0 0 0 0 0 0 0 0 0 0 0 0 0 0 0 0 0 0 0 0 0 0
0 0 0 0 0 0 0 0 0 0 0 0 0 0 0 0 0 0 0 0 0 0 0 0 0 0 0 0 0 0 0 0 0 0 0 0 0 0 0 0 0 0 0
0 0 0 0 0 0 0 0 0 0 0 0 0 0 0 0 0 0 0 0 0 0 0 0 0 0 0 0 0 0 0 0 0 0 0 0 0 0 0 0 0 0 0
0 0 0 0 0 0 0 0 0 0 0 0 0 0 0 0 0 0 0 0 0 0 0 0 0 0 0 0 0 0 0 0 0 0 0 0 0 0 0 0 0 0 0

GEFSMA_con_cape1000_150.txt.gz
Probability
23 19 23 13 23 19 16 16 16 16 13 16 10 6 6 3 3 0 6 39 61 65 65 61 61 61 58 58 58 65 55 61 52 42 45 48 48 39 42 42 35 35 35
19 19 16 10 13 16 13 13 13 10 6 3 3 6 6 3 6 0 0 16 35 52 52 52 48 55 45 48 52 48 55 58 52 42 32 29 35 35 39 32 32 32 32
19 13 16 13 16 13 10 3 6 6 6 0 0 0 0 0 6 3 0 3 13 26 39 45 48 39 35 42 42 35 39 42 35 39 26 26 29 26 26 29 29 26 29
13 10 10 10 10 13 13 6 10 10 6 0 0 0 0 0 0 0 0 0 0 6 16 19 35 32 29 35 32 29 29 32 32 29 23 19 26 16 13 16 16 19 16
13 13 13 10 10 6 3 10 6 3 3 0 0 0 0 0 0 0 0 0 0 0 3 3 16 23 23 16 23 19 16 29 29 23 23 19 19 19 10 13 13 6 6
10 10 13 10 6 6 3 3 6 3 3 3 3 3 0 0 0 0 0 0 0 0 0 0 3 3 10 19 23 23 23 26 26 19 16 13 13 6 3 3 3 3 3
10 10 10 6 6 6 10 6 6 6 6 0 0 0 0 0 0 0 0 0 0 0 0 0 3 3 3 3 6 6 10 16 19 16 19 13 10 3 3 3 0 0 0
10 10 6 6 6 6 6 6 6 6 6 0 0 0 0 0 0 0 0 0 0 0 0 0 0 0 0 0 0 0 0 10 10 10 13 13 10 3 3 3 3 0 0
10 10 10 6 6 6 6 3 3 3 3 0 0 0 0 0 0 0 0 0 0 0 0 0 0 0 0 0 0 0 0 0 3 10 3 3 6 3 3 3 3 3 0
10 10 6 6 6 6 6 3 3 3 3 3 0 0 0 0 0 0 0 0 0 0 0 0 0 0 0 0 0 0 0 0 0 3 3 3 3 3 3 6 3 3 3
6 6 6 6 6 6 6 3 3 3 3 3 0 0 0 0 0 0 0 0 0 0 0 0 0 0 0 0 0 0 0 0 0 0 0 0 3 3 0 3 3 6 6
0 6 6 6 6 6 6 3 3 0 0 0 0 0 0 0 0 0 0 0 0 0 0 0 0 0 0 0 0 0 0 0 0 0 0 0 0 0 0 0 0 0 3
0 0 0 3 6 6 6 6 3 0 0 0 0 0 0 0 0 0 0 0 0 0 0 0 0 0 0 0 0 0 0 0 0 0 0 0 0 0 0 0 0 0 0
0 0 0 0 3 3 3 3 3 0 0 0 0 0 0 0 0 0 0 0 0 0 0 0 0 0 0 0 0 0 0 0 0 0 0 0 0 0 0 0 0 0 0
0 0 0 0 0 3 3 3 3 0 0 0 0 0 0 0 0 0 0 0 0 0 0 0 0 0 0 0 0 0 0 0 0 0 0 0 0 0 0 0 0 0 0
0 0 0 0 3 0 0 0 3 3 0 0 0 0 0 0 0 0 0 0 0 0 0 0 0 0 0 0 0 0 0 0 0 0 0 0 0 0 0 0 0 0 0
0 0 0 0 0 0 0 0 0 3 0 0 0 0 0 0 0 0 0 0 0 0 0 0 0 0 0 0 0 0 0 0 0 0 0 0 0 0 0 0 0 0 0
0 0 0 0 0 0 0 0 0 0 0 0 0 0 0 0 0 0 0 0 0 0 0 0 0 0 0 0 0 0 0 0 0 0 0 0 0 0 0 0 0 0 0
0 0 0 0 0 0 0 0 0 0 0 0 0 0 0 0 0 0 0 0 0 0 0 0 0 0 0 0 0 0 0 0 0 0 0 0 0 0 0 0 0 0 0
0 0 0 0 0 0 0 0 0 0 0 0 0 0 0 0 0 0 0 0 0 0 0 0 0 0 0 0 0 0 0 0 0 0 0 0 0 0 0 0 0 0 0
0 0 0 0 0 0 0 0 0 0 0 0 0 0 0 0 0 0 0 0 0 0 0 0 0 0 0 0 0 0 0 0 0 0 0 0 0 0 0 0 0 0 0
0 0 0 0 0 0 0 0 0 0 0 0 0 0 0 0 0 0 0 0 0 0 0 0 0 0 0 0 0 0 0 0 0 0 0 0 0 0 0 0 0 0 0
0 0 0 0 0 0 0 0 0 0 0 0 0 0 0 0 0 0 0 0 0 0 0 0 0 0 0 0 0 0 0 0 0 0 0 0 0 0 0 0 0 0 0
0 0 0 0 0 0 0 0 0 0 0 0 0 0 0 0 0 0 0 0 0 0 0 0 0 0 0 0 0 0 0 0 0 0 0 0 0 0 0 0 0 0 0
0 0 0 0 0 0 0 0 0 0 0 0 0 0 0 0 0 0 0 0 0 0 0 0 0 0 0 0 0 0 0 0 0 0 0 0 0 0 0 0 0 0 0
0 0 0 0 0 0 0 0 0 0 0 0 0 0 0 0 0 0 0 0 0 0 0 0 0 0 0 0 0 0 0 0 0 0 0 0 0 0 0 0 0 0 0

GEFSMA_con_cape1000_156.txt.gz
Probability
65 55 61 61 58 52 52 61 48 48 42 32 26 16 19 19 23 26 52 52 52 55 52 55 58 55 52 48 48 55 45 39 39 45 48 52 45 42 35 39 39 39 39
61 61 52 58 65 61 55 55 48 52 42 32 26 23 19 29 35 42 23 39 52 45 39 39 42 39 42 42 45 42 42 42 35 39 39 32 35 32 32 32 39 39 39
48 48 55 45 48 58 58 65 39 42 45 39 35 32 35 26 26 39 23 23 23 29 39 39 39 35 35 39 42 42 39 39 32 32 39 32 23 26 26 23 26 29 35
39 45 45 48 48 55 52 58 48 45 39 32 39 32 23 26 32 35 19 19 19 23 23 23 29 32 29 26 29 26 35 32 32 29 26 26 19 13 13 13 16 23 19
26 26 42 39 35 39 45 35 42 32 32 32 23 19 16 16 16 10 13 13 16 29 23 19 23 23 29 23 19 19 16 26 32 26 19 16 16 13 13 10 13 10 10
23 26 26 26 26 29 29 29 29 35 32 32 16 10 19 10 6 6 10 6 13 16 13 13 16 13 19 16 16 16 16 16 19 16 16 16 10 3 3 3 3 6 6
19 26 26 26 26 29 29 29 23 23 26 19 16 16 16 10 10 13 6 6 6 6 13 10 10 6 13 16 13 16 16 16 16 13 13 13 6 3 3 0 0 0 3
19 19 23 26 26 29 26 26 29 19 19 13 16 10 10 10 13 3 3 3 6 3 3 3 3 3 0 10 3 13 13 16 16 13 13 16 3 3 0 0 0 0 0
16 19 19 19 19 19 19 16 23 26 16 16 13 13 16 13 6 6 3 3 6 3 3 6 3 3 0 3 10 6 6 10 10 13 13 13 6 0 0 0 0 0 0
16 16 16 13 19 19 16 13 10 16 16 16 13 13 10 6 6 6 3 3 0 0 0 0 0 0 0 0 3 0 0 0 0 6 6 6 0 0 3 3 3 0 0
16 16 16 16 13 13 13 13 13 13 10 6 6 6 3 3 3 6 3 3 0 0 0 0 0 0 0 0 3 0 0 0 0 0 0 0 0 0 0 0 3 3 0
10 10 10 10 10 10 13 13 13 13 13 13 10 6 6 3 3 3 3 3 3 0 0 0 0 0 0 0 0 0 0 0 0 0 0 0 0 0 3 0 3 3 3
6 6 6 10 6 6 6 13 13 10 10 10 10 6 10 3 3 3 3 3 3 0 0 0 0 3 0 3 3 0 0 0 0 0 0 0 0 0 3 3 3 0 0
3 3 3 3 6 6 6 10 10 10 10 10 6 6 10 6 3 0 3 3 0 0 0 0 0 3 3 3 0 0 3 0 0 0 0 0 0 0 0 0 0 0 0
3 3 3 3 3 6 6 10 6 6 6 6 0 0 6 10 6 0 3 3 3 0 0 0 0 0 0 0 0 0 0 0 0 0 0 0 0 0 0 0 0 0 0
3 3 3 3 3 3 6 10 6 6 3 0 0 0 0 3 6 0 0 3 3 0 0 0 3 0 0 0 0 0 0 0 0 0 0 0 0 0 0 0 0 0 0
3 3 3 3 3 3 3 3 6 3 3 3 0 0 0 0 3 0 0 0 0 3 3 3 0 0 0 0 0 0 0 0 0 0 0 0 0 0 0 0 0 0 0
0 3 3 3 3 3 3 0 0 0 0 3 3 0 0 0 0 0 0 0 0 0 0 0 0 0 0 0 0 0 0 0 0 0 0 0 0 0 0 0 0 0 0
0 0 0 0 0 0 0 0 0 0 0 0 3 3 0 0 0 0 0 0 0 0 0 0 0 0 0 0 0 0 0 0 0 0 0 0 0 0 0 0 0 0 0
0 0 0 0 0 0 0 0 0 0 0 0 0 3 3 0 0 0 0 0 0 0 0 0 0 0 0 0 0 0 0 0 0 0 0 0 0 0 0 0 0 0 0
0 0 0 0 0 0 0 0 0 0 0 0 0 0 0 0 0 0 0 0 0 0 0 0 0 0 0 0 0 0 0 0 0 0 0 0 0 0 0 0 0 0 0
0 0 0 0 0 0 0 0 0 0 0 0 0 0 0 0 0 0 0 0 0 0 0 0 0 0 0 0 0 0 0 0 0 3 3 0 0 0 0 0 0 0 0
0 0 0 0 0 0 0 0 0 0 0 0 0 0 0 0 0 0 0 0 0 0 0 0 0 0 0 0 0 0 0 0 0 0 0 0 0 0 0 0 0 0 0
0 0 0 0 0 0 0 0 0 0 0 0 0 0 0 0 0 0 0 0 0 0 0 0 0 0 0 0 0 0 0 0 0 0 0 0 0 0 0 0 0 0 0
0 0 0 0 0 0 0 0 0 0 0 0 0 0 0 0 0 0 0 0 0 0 0 0 0 0 0 0 0 0 0 0 0 0 0 0 0 0 3 3 0 0 0
0 0 0 0 0 0 0 0 0 0 0 0 0 0 0 0 0 0 0 0 0 0 0 0 0 0 0 0 0 0 3 3 3 0 0 0 3 3 0 0 3 0 0

GEFSMA_con_cape1000_162.txt.gz
Probability
65 65 61 65 65 68 61 58 52 52 45 39 42 32 29 23 35 42 45 58 58 48 52 52 52 52 58 58 61 52 52 45 45 42 39 39 45 45 42 35 35 35 35
68 65 58 58 58 58 58 55 52 55 52 42 42 42 32 32 42 52 45 42 52 48 48 45 42 42 42 39 45 45 45 39 42 39 35 35 35 35 35 29 29 32 29
55 58 48 52 42 39 45 52 52 52 48 48 42 42 39 42 35 48 48 45 32 39 45 42 42 45 35 35 39 42 42 42 42 35 32 35 32 32 29 23 26 26 26
45 52 48 52 48 45 45 48 52 45 45 42 42 39 32 35 29 39 32 35 39 23 32 35 42 39 35 32 32 32 32 35 42 35 35 29 26 29 29 19 19 16 19
39 42 35 42 35 35 39 32 39 42 35 35 32 32 32 32 26 19 26 29 23 32 32 29 35 39 42 32 29 26 23 26 35 32 32 29 23 23 16 10 10 13 10
29 32 32 29 32 29 26 26 29 32 32 32 16 19 16 19 16 13 16 13 10 16 23 19 26 23 32 32 29 23 19 23 23 26 29 26 26 13 13 6 10 3 6
26 29 26 26 32 32 32 26 23 26 26 26 23 19 13 10 6 13 19 13 10 13 13 16 16 13 19 23 19 23 16 16 19 16 16 19 19 16 6 0 0 0 0
19 16 23 23 23 29 26 29 23 23 19 23 23 16 10 10 10 6 13 10 10 13 16 6 10 10 10 10 6 16 16 19 16 13 13 19 16 13 10 3 3 3 0
16 16 16 19 23 19 19 23 26 19 16 19 19 10 10 6 3 10 6 6 10 16 13 13 13 10 13 13 6 3 13 13 13 13 16 13 6 6 13 10 6 6 3
16 16 16 16 19 19 19 16 16 16 13 16 19 16 13 10 3 3 3 3 6 6 10 3 6 10 10 6 6 6 3 3 10 13 13 10 0 0 6 6 6 3 3
13 16 16 16 16 19 16 16 13 13 13 13 13 13 10 6 3 3 3 3 3 6 6 6 10 10 6 6 3 3 0 0 0 3 6 3 0 0 0 0 0 3 0
10 10 13 13 13 13 10 13 13 10 10 13 13 13 10 6 3 3 3 3 3 3 6 6 6 6 6 3 3 0 0 0 0 0 0 0 0 0 0 3 3 0 0
6 10 10 10 10 10 13 13 16 13 13 10 6 10 10 6 6 3 3 3 3 3 6 6 6 6 3 3 3 0 0 0 0 0 0 0 0 0 0 0 0 0 0
6 10 6 10 10 10 10 10 10 13 13 13 6 6 6 6 6 3 3 3 3 3 3 3 3 3 3 0 0 0 0 0 0 0 0 0 0 0 0 0 0 0 0
6 6 6 6 6 6 6 13 10 13 10 13 13 13 10 13 10 10 3 3 3 3 3 3 3 3 0 0 0 0 0 0 0 0 0 0 0 0 0 0 0 0 0
3 3 3 3 3 3 3 3 3 6 10 6 13 10 6 13 10 10 6 3 3 3 0 3 3 0 0 0 0 0 0 0 0 0 0 0 0 0 0 0 0 0 0
3 3 3 3 3 3 3 3 3 3 3 3 0 3 3 3 10 6 6 3 3 0 0 3 3 0 0 0 0 0 0 0 0 0 0 0 0 0 0 0 0 0 0
3 3 3 3 3 3 3 3 0 0 0 0 0 0 0 3 0 0 0 0 0 0 0 0 0 0 0 0 0 0 0 0 0 0 0 0 0 0 0 0 0 0 0
3 3 3 3 3 3 3 0 0 0 0 0 0 0 0 0 0 0 0 0 0 0 0 0 0 0 0 0 0 0 0 0 0 0 0 0 0 0 0 0 0 0 0
0 0 0 0 0 0 0 0 0 0 0 0 0 0 0 0 0 0 0 0 0 0 0 0 0 0 0 0 0 0 0 0 0 0 0 0 0 0 0 0 0 0 0
0 0 0 0 0 0 0 0 0 0 0 0 0 0 0 0 0 0 0 0 0 0 0 0 0 0 0 0 0 0 0 0 0 0 0 0 0 0 0 0 0 0 0
0 0 0 0 0 0 0 0 0 0 0 0 0 0 0 0 0 0 0 0 0 0 0 0 0 0 0 0 0 0 0 0 0 0 0 0 0 0 0 0 0 0 0
0 0 0 0 0 0 0 0 0 0 0 0 0 0 0 0 0 0 0 0 0 0 0 0 0 0 0 0 0 0 0 0 0 0 0 0 0 0 0 0 0 0 0
0 0 0 0 0 0 0 0 0 0 0 0 0 0 0 0 0 0 0 0 0 0 0 0 0 0 0 0 0 0 0 0 0 0 0 0 0 0 0 0 0 0 0
0 0 0 0 0 0 0 0 0 0 0 0 0 0 0 0 0 0 0 0 0 0 0 0 0 0 0 0 0 0 0 0 0 0 0 0 0 0 0 0 0 0 0
0 0 0 0 0 0 0 0 0 0 0 0 0 0 0 0 0 0 0 0 0 0 0 0 0 0 0 0 0 0 0 0 0 0 0 0 0 0 0 0 0 0 0

GEFSMA_con_cape1000_168.txt.gz
Probability
13 10 16 13 10 10 10 10 10 6 6 0 3 6 3 0 3 0 3 39 42 39 48 48 52 58 58 61 58 55 55 55 58 55 45 42 45 45 45 48 45 45 35
16 16 16 16 13 16 10 10 6 6 3 0 3 0 0 0 0 0 0 10 29 42 45 48 48 52 48 39 39 35 45 52 52 55 52 39 42 42 39 42 45 48 32
13 19 16 10 10 13 10 3 3 0 0 0 0 0 0 0 0 0 0 0 0 13 32 39 42 39 42 35 32 29 35 42 35 42 52 45 42 35 35 35 32 32 29
13 10 10 6 6 6 6 0 6 3 3 3 3 3 0 0 0 0 0 0 0 3 6 23 26 26 29 23 23 29 35 39 39 35 42 35 42 39 29 26 19 23 16
10 10 6 6 6 10 6 10 6 6 3 3 3 0 0 0 0 0 0 3 0 0 0 3 16 16 23 19 23 23 26 32 32 29 32 29 26 29 19 16 16 10 13
13 13 10 6 10 10 6 6 10 6 3 3 3 3 3 3 3 3 3 0 0 0 0 0 3 3 16 13 19 19 19 23 26 26 26 29 13 10 13 16 13 6 3
16 10 10 6 10 10 6 6 10 6 3 3 3 3 0 0 0 0 0 0 0 3 0 0 0 0 3 16 19 19 19 16 16 19 23 19 16 6 6 6 6 6 3
16 10 10 10 10 10 6 10 10 3 0 3 3 0 0 0 0 0 0 0 0 0 0 3 0 0 0 3 3 19 16 16 10 10 10 19 13 10 3 3 3 3 3
16 10 10 10 10 10 10 6 6 3 0 0 3 0 0 0 0 0 0 0 0 0 0 0 0 0 0 0 0 0 6 6 10 10 13 16 10 10 3 3 3 3 3
10 10 10 10 10 10 6 3 3 0 3 0 0 0 0 0 0 0 0 0 0 0 0 0 0 0 0 0 0 0 0 3 10 13 13 13 10 10 3 3 3 3 3
6 6 6 10 10 3 3 3 3 6 3 3 3 0 0 0 0 0 0 0 0 0 0 0 0 0 0 0 0 0 0 0 3 3 10 13 10 6 6 3 3 3 0
0 3 3 3 3 3 0 0 3 3 3 3 3 3 0 0 0 0 0 0 0 0 0 0 0 0 0 0 0 0 0 0 0 0 0 3 3 3 3 3 3 3 3
0 0 0 0 0 0 0 0 3 3 3 3 0 0 0 0 0 0 0 0 0 0 0 0 0 0 0 0 0 0 0 0 0 0 0 0 0 0 0 0 3 3 3
0 0 0 0 0 0 3 3 3 0 0 0 0 0 0 0 0 0 0 0 0 0 0 0 0 0 0 0 0 0 0 0 0 0 0 0 0 0 0 0 0 0 0
0 0 0 0 0 0 0 0 0 0 0 0 0 0 0 0 0 0 0 0 0 0 0 0 0 0 0 0 0 0 0 0 0 0 0 0 0 0 0 0 0 0 0
0 0 0 0 0 0 0 0 0 0 0 0 0 0 0 0 0 0 0 0 0 0 0 0 0 0 0 0 0 0 0 0 0 0 0 0 0 0 0 0 0 0 0
0 0 0 0 0 0 0 0 0 0 0 0 0 0 0 0 0 0 0 0 0 0 0 0 0 0 0 0 0 0 0 0 0 0 0 0 0 0 0 0 0 0 0
0 0 0 0 0 0 0 0 0 0 0 0 0 0 0 0 0 0 0 0 0 0 0 0 0 0 0 0 0 0 0 0 0 0 0 0 0 0 0 0 0 0 0
0 0 0 0 0 0 0 0 0 0 0 0 0 0 0 0 0 0 0 0 0 0 0 0 0 0 0 0 0 0 0 0 0 0 0 0 0 0 0 0 0 0 0
0 0 0 0 0 0 0 0 0 0 0 0 0 0 0 0 0 0 0 0 0 0 0 0 0 0 0 0 0 0 0 0 0 0 0 0 0 0 0 0 0 0 0
0 0 0 0 0 0 0 0 0 0 0 0 0 0 0 0 0 0 0 0 0 0 0 0 0 0 0 0 0 0 0 0 0 0 0 0 0 0 0 0 0 0 0
0 0 0 0 0 0 0 0 0 0 0 0 0 0 0 0 0 0 0 0 0 0 0 0 0 0 0 0 0 0 0 0 0 0 0 0 0 0 0 0 0 0 0
0 0 0 0 0 0 0 0 0 0 0 0 0 0 0 0 0 0 0 0 0 0 0 0 0 0 0 0 0 0 0 0 0 0 0 0 0 0 0 0 0 0 0
0 0 0 0 0 0 0 0 0 0 0 0 0 0 0 0 0 0 0 0 0 0 0 0 0 0 0 0 0 0 0 0 0 0 0 0 0 0 0 0 0 0 0
0 0 0 0 0 0 0 0 0 0 0 0 0 0 0 0 0 0 0 0 0 0 0 0 0 0 0 0 0 0 0 0 0 0 0 0 0 0 0 0 0 0 0
0 0 0 0 0 0 0 0 0 0 0 0 0 0 0 0 0 0 0 0 0 0 0 0 0 0 0 0 0 0 0 0 0 0 0 0 0 0 0 0 0 0 0

GEFSMA_con_cape1000_174.txt.gz
Probability
6 10 10 13 10 13 6 3 3 3 0 0 3 6 3 3 3 3 3 6 29 39 39 35 35 35 48 52 48 55 52 52 55 48 42 48 39 35 35 42 32 42 52
6 10 6 6 6 10 3 3 3 0 0 3 10 6 0 3 3 3 0 3 6 29 39 45 32 32 32 35 39 42 42 45 48 39 35 29 26 29 32 29 29 26 29
6 10 10 10 10 6 6 3 3 0 0 3 6 3 0 3 6 3 0 0 3 10 16 29 26 26 23 26 26 32 39 35 35 35 35 26 26 26 19 26 29 19 16
6 3 6 6 6 3 6 6 0 3 3 3 6 3 0 0 0 0 0 0 0 0 3 13 19 13 10 13 13 13 23 29 29 26 29 26 23 19 16 13 16 16 13
10 10 10 6 6 6 3 3 3 0 3 0 0 0 0 0 0 0 0 0 0 0 0 0 6 6 6 10 6 10 16 16 23 26 29 19 19 19 13 13 16 6 3
6 6 6 3 3 3 3 0 3 0 0 0 0 0 0 0 0 0 0 0 0 0 0 0 0 0 6 6 6 10 10 10 19 16 16 19 13 13 10 10 6 6 6
6 6 10 3 3 3 3 0 0 0 0 0 0 0 0 0 0 0 0 0 0 0 0 0 0 0 3 10 6 10 10 3 10 13 16 16 16 10 10 6 6 3 3
6 6 6 3 0 0 0 0 0 0 0 0 0 0 0 0 0 0 0 0 0 0 0 0 0 0 0 0 0 6 6 10 3 6 13 16 16 13 10 10 6 6 3
10 10 6 6 3 0 0 0 0 0 0 0 0 0 0 0 0 0 0 0 0 0 0 0 0 0 0 0 0 0 10 10 6 3 10 16 13 13 13 13 13 10 3
6 6 3 3 3 0 3 0 3 0 0 0 0 0 0 0 0 0 0 0 0 0 0 0 0 0 0 0 0 0 3 0 10 6 6 6 10 13 19 16 10 10 10
6 6 6 3 3 3 3 3 3 0 0 0 0 0 0 0 0 0 0 0 0 0 0 0 0 0 0 0 0 0 0 0 0 3 6 6 6 13 10 6 6 10 10
0 0 0 3 3 3 3 0 0 0 0 0 0 0 0 0 0 0 0 0 0 0 0 0 0 0 0 0 0 0 0 0 0 0 0 3 6 10 6 10 3 3 3
0 0 0 0 0 0 0 0 0 0 0 0 0 0 0 0 0 0 0 0 0 0 0 0 0 0 0 0 0 0 0 0 0 0 0 0 0 0 0 3 10 6 3
0 0 0 0 0 0 0 0 0 0 0 0 0 0 0 0 0 0 0 0 0 0 0 0 0 0 0 0 0 0 0 0 0 0 0 0 0 0 0 0 0 0 0
0 0 0 0 0 0 0 0 0 0 0 0 0 0 0 0 0 0 0 0 0 0 0 0 0 0 0 0 0 0 0 0 0 0 0 0 0 0 0 0 0 0 0
0 0 0 0 0 0 0 0 0 0 0 0 0 0 0 0 0 0 0 0 0 0 0 0 0 0 0 0 0 0 0 0 0 0 0 0 0 0 0 0 0 0 0
0 0 0 0 0 0 0 0 0 0 0 0 0 0 0 0 0 0 0 0 0 0 0 0 0 0 0 0 0 0 0 0 0 0 0 0 0 0 0 0 0 0 0
0 0 0 0 0 0 0 0 0 0 0 0 0 0 0 0 0 0 0 0 0 0 0 0 0 0 0 0 0 0 0 0 0 0 0 0 0 0 0 0 0 0 0
0 0 0 0 0 0 0 0 0 0 0 0 0 0 0 0 0 0 0 0 0 0 0 0 0 0 0 0 0 0 0 0 0 0 0 0 0 0 0 0 0 0 0
0 0 0 0 0 0 0 0 0 0 0 0 0 0 0 0 0 0 0 0 0 0 0 0 0 0 0 0 0 0 0 0 0 0 0 0 0 0 0 0 0 0 0
0 0 0 0 0 0 0 0 0 0 0 0 0 0 0 0 0 0 0 0 0 0 0 0 0 0 0 0 0 0 0 0 0 0 0 0 0 0 0 0 0 0 0
0 0 0 0 0 0 0 0 0 0 0 0 0 0 0 0 0 0 0 0 0 0 0 0 0 0 0 0 0 0 0 0 0 0 0 0 0 0 0 0 0 0 0
0 0 0 0 0 0 0 0 0 0 0 0 0 0 0 0 0 0 0 0 0 0 0 0 0 0 0 0 0 0 0 0 0 0 0 0 0 0 0 0 0 0 0
0 0 0 0 0 0 0 0 0 0 0 0 0 0 0 0 0 0 0 0 0 0 0 0 0 0 0 0 0 0 0 0 0 0 0 0 0 0 0 0 0 0 0
0 0 0 0 0 0 0 0 0 0 0 0 0 0 0 0 0 0 0 0 0 0 0 0 0 0 0 0 0 0 0 0 0 0 0 0 0 0 0 0 0 0 0
0 0 0 0 0 0 0 0 0 0 0 0 0 0 0 0 0 0 0 0 0 0 0 0 0 0 0 0 0 0 0 0 0 0 0 0 0 0 0 0 0 0 0

GEFSMA_con_cape1000_180.txt.gz
Probability
42 35 48 42 32 26 35 42 32 26 26 16 6 3 13 16 16 23 29 16 19 29 32 35 45 45 45 55 55 48 48 45 42 42 42 39 45 42 52 42 42 42 35
45 42 35 32 29 26 29 32 32 29 23 23 16 16 19 13 16 23 19 23 13 13 10 26 29 35 29 35 39 42 45 45 45 48 39 35 35 32 42 39 32 26 26
39 32 26 29 26 26 29 26 26 26 23 23 19 26 23 23 19 23 19 26 19 10 10 10 10 19 16 19 23 23 32 35 29 29 29 32 29 29 23 13 23 23 19
26 29 26 19 23 23 26 29 32 26 19 19 19 16 23 29 23 26 16 16 13 10 10 10 10 13 13 6 10 16 26 23 29 26 26 26 16 19 16 10 16 13 13
26 26 19 19 19 26 26 23 23 23 23 19 19 19 16 13 23 13 6 6 6 6 6 10 6 10 6 6 6 10 13 13 19 19 19 19 23 16 16 6 10 10 10
23 19 19 19 19 26 23 23 26 26 26 23 13 13 13 13 13 10 6 6 3 3 0 0 3 6 6 6 6 10 10 6 13 16 13 13 13 13 10 6 6 10 6
23 23 19 23 23 19 19 16 19 19 23 19 16 10 10 10 10 10 6 3 0 0 3 0 3 3 3 6 6 10 3 6 6 10 13 13 10 6 6 3 3 3 3
23 23 23 23 23 23 19 16 19 16 13 13 16 6 0 6 6 0 3 0 0 0 0 0 3 10 6 3 0 0 0 3 6 6 10 13 13 10 6 3 3 3 3
16 16 13 13 16 16 13 13 13 13 13 13 13 10 3 6 3 0 0 0 3 6 3 3 3 6 6 6 0 0 0 0 3 6 10 6 13 13 16 10 3 3 3
13 13 13 13 10 10 10 13 13 13 10 13 13 13 10 3 0 0 0 3 6 6 3 3 3 3 3 6 3 0 0 0 0 0 6 6 6 10 10 10 10 3 3
10 10 10 10 10 10 10 10 10 13 13 10 10 13 10 13 6 0 0 3 3 0 3 3 3 3 3 3 3 0 0 0 0 0 0 3 6 6 10 10 10 10 3
10 10 10 10 10 10 10 10 10 6 6 10 10 13 13 10 6 3 0 3 3 0 0 3 3 3 3 3 3 0 0 0 0 0 0 0 3 3 3 6 10 10 10
10 10 10 10 10 10 10 10 10 6 10 6 13 16 16 13 6 6 3 3 3 3 3 0 3 6 3 3 3 0 0 0 0 0 0 0 0 3 3 3 6 10 10
6 6 6 10 10 10 10 10 6 6 6 10 6 6 13 13 6 10 6 3 0 0 3 3 6 3 0 6 0 0 0 0 0 0 0 0 0 0 0 3 3 0 0
3 3 3 3 10 10 10 10 10 10 10 6 6 6 6 6 6 6 6 3 0 0 0 3 3 3 0 3 3 0 0 0 0 0 0 0 0 0 0 0 0 0 0
3 3 6 6 3 3 6 3 6 3 3 0 0 0 3 6 3 6 3 3 0 3 3 0 3 3 0 0 0 0 0 0 0 0 0 0 0 0 0 0 0 0 0
3 3 3 6 3 0 3 3 0 0 0 0 0 0 0 0 3 3 0 0 0 0 0 0 0 3 0 0 0 0 0 0 0 0 0 0 0 0 0 0 0 0 0
3 3 3 0 0 0 3 3 3 0 0 0 0 0 0 0 0 0 0 0 0 0 0 0 0 0 0 0 0 0 0 0 0 0 0 0 0 0 0 0 0 0 0
0 0 0 0 0 0 0 3 3 0 0 0 0 0 0 0 0 0 0 0 0 0 0 0 0 0 0 0 0 0 0 0 0 0 0 0 0 0 0 0 0 0 0
0 0 0 0 0 0 0 3 0 0 0 0 0 0 0 0 0 0 0 0 0 0 0 0 0 0 0 0 0 0 0 0 0 0 0 0 0 0 0 0 0 0 0
0 0 0 0 0 0 0 0 0 0 0 0 0 0 0 0 0 0 0 0 0 0 0 0 0 0 0 0 0 0 0 0 0 0 0 0 0 0 0 0 0 0 0
0 0 0 0 0 0 0 0 0 0 0 0 0 0 0 0 0 0 0 0 0 0 0 0 0 0 0 0 0 0 0 0 0 0 0 0 0 0 0 0 0 0 0
0 0 0 0 0 0 0 0 0 0 0 0 0 0 0 0 0 0 0 0 0 0 0 0 0 0 0 0 0 0 0 0 0 3 3 0 0 0 0 0 0 0 0
0 3 3 0 0 0 0 0 0 0 0 0 0 0 0 0 0 0 0 0 0 0 0 0 0 0 0 0 0 0 0 0 0 0 0 0 0 0 0 0 0 0 0
0 3 3 0 0 0 0 0 0 0 0 0 0 0 0 0 0 0 0 0 0 0 0 0 0 0 0 0 0 0 0 0 0 0 0 0 0 3 0 0 0 0 0
0 0 0 0 0 0 0 0 0 0 0 0 0 0 0 0 0 0 0 0 0 0 0 0 0 0 0 0 0 0 0 0 0 0 0 0 0 0 0 0 0 0 0

GEFSMA_con_cape1000_186.txt.gz
Probability
45 45 45 39 26 23 23 26 26 19 13 19 19 19 19 19 23 26 26 32 32 35 26 29 32 39 39 52 48 65 48 55 55 48 45 48 52 52 52 52 48 45 48
42 45 45 35 26 23 26 23 19 16 16 19 13 16 19 23 26 29 19 16 26 26 29 26 29 29 32 35 39 39 39 52 48 52 42 29 26 35 35 35 39 32 29
35 42 42 32 26 29 26 23 23 23 16 10 13 26 29 29 23 26 26 26 16 19 29 29 29 26 29 26 29 29 26 42 35 39 39 23 19 13 19 23 23 19 26
35 39 35 23 26 23 26 23 19 23 16 23 16 19 19 26 29 23 26 26 10 10 19 39 32 29 19 23 13 23 26 26 29 26 26 23 19 13 16 13 13 13 10
32 32 23 26 23 23 23 19 26 23 16 13 13 13 16 26 32 16 19 13 6 13 13 10 29 29 19 19 10 13 23 23 16 19 23 19 19 13 6 6 10 6 10
23 23 29 29 23 23 26 26 19 26 23 23 10 6 13 13 19 26 16 10 10 6 6 10 19 16 16 19 16 10 13 10 23 19 16 13 16 16 10 6 6 0 3
23 23 26 26 23 26 19 23 23 19 19 23 16 10 16 13 10 16 13 6 6 6 10 6 6 10 10 13 10 13 10 10 16 6 16 10 6 10 10 6 3 3 3
23 19 26 19 19 19 19 19 19 19 13 16 13 3 3 3 6 6 6 6 10 3 3 3 3 3 6 0 3 6 10 10 10 10 6 6 10 6 10 10 6 3 3
23 23 19 19 16 16 16 16 16 16 13 10 10 3 3 3 3 3 6 6 6 6 3 3 3 3 3 3 0 3 6 10 10 6 6 6 6 6 10 6 10 10 3
19 13 13 10 13 13 13 13 13 13 6 6 6 6 10 6 3 3 6 6 6 3 3 0 0 3 3 3 3 0 0 0 3 6 0 0 0 6 10 6 3 6 3
16 13 10 13 10 10 10 13 13 10 6 6 3 6 3 3 3 3 0 0 6 3 3 3 3 3 3 3 3 3 0 0 0 0 0 0 3 3 6 6 3 3 6
13 13 10 10 10 10 13 6 6 6 10 6 6 6 3 3 3 3 3 3 6 6 6 6 6 3 6 3 3 3 0 0 0 0 0 0 0 3 6 0 3 3 6
10 10 6 10 6 6 6 10 6 6 6 6 6 3 3 3 3 3 3 3 3 6 6 6 6 6 0 0 3 0 0 0 0 0 0 0 0 0 3 0 0 3 3
13 10 10 10 10 6 6 6 6 3 6 6 3 6 10 6 6 3 3 3 3 3 6 3 3 3 3 0 0 0 0 0 0 0 0 0 0 0 0 0 0 0 3
6 6 10 10 10 6 6 6 6 3 3 3 3 10 6 10 3 6 3 3 0 0 3 3 3 3 0 0 0 0 0 0 0 0 0 0 0 0 0 0 0 0 0
6 6 6 6 3 6 6 6 6 3 3 3 3 6 3 3 3 3 6 0 0 0 0 3 3 3 3 0 0 0 3 0 0 0 0 0 0 0 0 0 0 0 0
6 6 6 3 3 3 3 3 3 3 3 3 0 3 3 0 0 3 0 0 0 0 0 0 3 3 0 0 0 0 0 0 0 0 0 0 0 0 0 0 0 0 0
6 6 3 3 3 3 3 3 3 3 0 0 0 3 0 0 0 3 0 0 0 0 0 0 0 0 0 0 0 0 0 0 0 0 0 0 0 0 0 0 0 0 0
6 6 3 3 3 3 3 3 3 0 0 0 0 0 0 0 0 0 3 0 0 0 0 0 0 0 0 0 0 0 0 0 0 0 0 0 0 0 0 0 0 0 0
6 6 3 3 3 3 0 0 0 0 0 0 0 0 0 0 0 0 0 0 0 0 0 0 0 0 0 0 0 0 0 0 0 0 0 0 0 0 0 0 0 0 0
3 3 3 3 3 0 0 0 0 0 0 0 0 0 0 0 0 0 0 0 0 0 0 0 0 0 0 0 0 0 0 0 0 0 0 0 0 0 0 0 0 0 0
6 3 3 0 0 0 0 0 0 0 0 0 0 0 0 0 0 0 0 0 0 0 0 0 0 0 0 0 0 0 0 0 0 0 0 0 0 0 0 0 0 0 0
6 3 0 0 0 0 0 0 0 0 0 0 0 0 0 0 0 0 0 0 0 0 0 0 0 0 0 0 0 0 0 0 0 0 0 0 0 0 0 0 0 0 0
6 3 0 0 0 0 0 0 0 0 0 0 0 0 0 0 0 0 0 0 0 0 0 0 0 0 0 0 0 0 0 0 0 0 0 0 0 0 0 0 0 0 0
3 3 0 0 0 0 0 0 0 0 0 0 0 0 0 0 0 0 0 0 0 0 0 0 0 0 0 0 0 0 0 0 0 0 0 0 0 0 0 0 0 0 0
3 0 0 0 0 0 0 0 0 0 0 0 0 0 0 0 0 0 0 0 0 0 0 0 0 0 0 0 0 0 0 0 0 0 0 0 0 0 0 0 0 0 0